| time (UTC) | temp C | wind direction | speed KPH | gust KPH | rain 1hr cm | rain 24hr cm | rain mn cm | humidity % | barometer mb |
| 20260507000503 | 13 | 150 | 12.9 | 0.0 | 0.00 | 0.00 | 0.00 | 48 | 1015.0 |
| 20260506233503 | 15 | 160 | 12.9 | 0.0 | 0.00 | 0.00 | 0.00 | 45 | 1015.0 |
| 20260506230503 | 17 | 160 | 20.9 | 0.0 | 0.00 | 0.00 | 0.00 | 42 | 1015.0 |
| 20260506223503 | 16 | 170 | 14.5 | 0.0 | 0.00 | 0.00 | 0.00 | 48 | 1014.0 |
| 20260506220503 | 17 | 180 | 14.5 | 0.0 | 0.00 | 0.00 | 0.00 | 49 | 1015.0 |
| 20260506213503 | 17 | 180 | 16.1 | 0.0 | 0.00 | 0.00 | 0.00 | 49 | 1014.0 |
| 20260506210502 | 17 | 180 | 17.7 | 0.0 | 0.00 | 0.00 | 0.00 | 46 | 1014.0 |
| 20260506203503 | 17 | 180 | 20.9 | 0.0 | 0.00 | 0.00 | 0.00 | 46 | 1014.0 |
| 20260506200502 | 18 | 170 | 16.1 | 0.0 | 0.00 | 0.00 | 0.00 | 43 | 1014.0 |
| 20260506193502 | 18 | 160 | 16.1 | 0.0 | 0.00 | 0.00 | 0.00 | 43 | 1014.0 |
| 20260506190503 | 20 | 160 | 16.1 | 0.0 | 0.00 | 0.00 | 0.00 | 40 | 1014.0 |
| 20260506183503 | 21 | 180 | 20.9 | 0.0 | 0.00 | 0.00 | 0.00 | 38 | 1013.0 |
| 20260506180502 | 22 | 190 | 17.7 | 0.0 | 0.00 | 0.00 | 0.00 | 36 | 1013.0 |
| 20260506173503 | 22 | 190 | 16.1 | 0.0 | 0.00 | 0.00 | 0.00 | 36 | 1013.0 |
| 20260506170502 | 22 | 180 | 14.5 | 0.0 | 0.00 | 0.00 | 0.00 | 31 | 1012.0 |
| 20260506163502 | 23 | 170 | 14.5 | 0.0 | 0.00 | 0.00 | 0.00 | 31 | 1012.0 |
| 20260506160503 | 23 | 150 | 22.5 | 0.0 | 0.00 | 0.00 | 0.00 | 29 | 1012.0 |
| 20260506153502 | 25 | 160 | 20.9 | 0.0 | 0.00 | 0.00 | 0.00 | 30 | 1012.0 |
| 20260506150502 | 26 | 160 | 14.5 | 0.0 | 0.00 | 0.00 | 0.00 | 30 | 1012.0 |
| 20260506143502 | 26 | 190 | 12.9 | 0.0 | 0.00 | 0.00 | 0.00 | 28 | 1012.0 |
| 20260506140502 | 27 | 12.9 | 0.0 | 0.00 | 0.00 | 0.00 | 30 | 1012.0 | |
| 20260506133503 | 26 | 140 | 17.7 | 0.0 | 0.00 | 0.00 | 0.00 | 28 | 1012.0 |
| 20260506130502 | 27 | 170 | 14.5 | 0.0 | 0.00 | 0.00 | 0.00 | 26 | 1012.0 |
| 20260506123502 | 27 | 180 | 11.3 | 0.0 | 0.00 | 0.00 | 0.00 | 26 | 1013.0 |
| 20260506120503 | 26 | 9.7 | 0.0 | 0.00 | 0.00 | 0.00 | 28 | 1013.0 | |
| 20260506113502 | 26 | 200 | 11.3 | 0.0 | 0.00 | 0.00 | 0.00 | 26 | 1013.0 |
| 20260506110502 | 26 | 150 | 14.5 | 0.0 | 0.00 | 0.00 | 0.00 | 26 | 1013.0 |
| 20260506103503 | 25 | 140 | 12.9 | 0.0 | 0.00 | 0.00 | 0.00 | 30 | 1013.0 |
| 20260506100502 | 25 | 150 | 11.3 | 0.0 | 0.00 | 0.00 | 0.00 | 32 | 1014.0 |
| 20260506093502 | 23 | 160 | 14.5 | 0.0 | 0.00 | 0.00 | 0.00 | 29 | 1014.0 |
| 20260506090502 | 23 | 180 | 11.3 | 0.0 | 0.00 | 0.00 | 0.00 | 34 | 1014.0 |
| 20260506083502 | 22 | 130 | 8.0 | 0.0 | 0.00 | 0.00 | 0.00 | 36 | 1014.0 |
| 20260506080503 | 21 | 130 | 8.0 | 0.0 | 0.00 | 0.00 | 0.00 | 40 | 1014.0 |
| 20260506073502 | 18 | 120 | 9.7 | 0.0 | 0.00 | 0.00 | 0.00 | 46 | 1014.0 |
| 20260506070502 | 17 | 130 | 9.7 | 0.0 | 0.00 | 0.00 | 0.00 | 49 | 1014.0 |
| 20260506060502 | 13 | 120 | 14.5 | 0.0 | 0.00 | 0.00 | 0.00 | 55 | 1014.0 |
| 20260506050502 | 12 | 110 | 14.5 | 0.0 | 0.00 | 0.00 | 0.00 | 55 | 1014.0 |
| 20260506043502 | 12 | 110 | 12.9 | 0.0 | 0.00 | 0.00 | 0.00 | 58 | 1014.0 |
| 20260506040503 | 11 | 100 | 12.9 | 0.0 | 0.00 | 0.00 | 0.00 | 62 | 1014.0 |
| 20260506033503 | 10 | 100 | 12.9 | 0.0 | 0.00 | 0.00 | 0.00 | 62 | 1014.0 |
| 20260506030502 | 8 | 110 | 12.9 | 0.0 | 0.00 | 0.00 | 0.00 | 66 | 1014.0 |
| 20260506023503 | 10 | 110 | 11.3 | 0.0 | 0.00 | 0.00 | 0.00 | 62 | 1013.0 |
| 20260506020503 | 10 | 110 | 9.7 | 0.0 | 0.00 | 0.00 | 0.00 | 62 | 1013.0 |
| 20260506013503 | 11 | 110 | 11.3 | 0.0 | 0.00 | 0.00 | 0.00 | 58 | 1013.0 |
| 20260506010503 | 11 | 120 | 12.9 | 0.0 | 0.00 | 0.00 | 0.00 | 62 | 1013.0 |
| 20260506003502 | 11 | 120 | 12.9 | 0.0 | 0.00 | 0.00 | 0.00 | 67 | 1013.0 |